Tracking 17694 objects as of 29-May-2016
HD Live streaming from Space Station
objects crossing your sky now

COSMOS 2251 DEB

Track COSMOS 2251 DEB now!
10-day predictions


NORAD ID: 37326
Int'l Code: 1993-036BKS
Perigee: 683.0 km
Apogee: 779.6 km
Inclination: 74.0 °
Period: 99.3 minutes
Semi major axis: 7102 km
RCS: 0.0127 m2 (small)
Launch date: June 16, 1993
Source: Commonwealth of Independent States (former USSR) (CIS)
Launch site: PLESETSK MISSILE AND SPACE COMPLEX (PKMTR)

Note: This is SATELLITE DEBRIS
Your satellite tracking list
Your tracking list is empty





NASA's NSSDC Master Catalog

Two Line Element Set (TLE):
1 37326U 93036BKS 16150.15357039  .00000434  00000-0  11505-3 0  9994
2 37326  74.0299  73.4801 0068047 346.6677  13.2682 14.50457865350668
Source of the keplerian elements: AFSPC

N2YO: 890